Voltar ao catálogo

GONETS M 18

AtivoComunicaçõesPO
NORAD 46487·PAYLOAD·🇷🇺 Russia

Lançado Sep 28, 2020 de Plesetsk Cosmodrome

Loading…

Próximas Passagens (próximas 24 horas)

TLE

AtualizadoSource: Space-Track

Época: Sep 14, 2026, 14:32 UTC

1 46487U 20068B   26257.60611063  .00000022  00000-0  86694-4 0  9991
2 46487  82.4905 290.9653 0019644 193.2644 166.7922 12.42876807270250

Acompanhe GONETS M 18 em tempo real com AllMySat

Download on the App Store